Location: New Mesquite
(33.1168°N, 96.4336°W)
Time: 09:02:09
(UTC+00:00)

OPS-SAT - Pass Details

Date: 09 October 2022
Orbit: 486 x 504 km, 97.5° (Epoch: 01 December)

Event Time Altitude Azimuth Distance (km) Brightness Sun altitude
Rises 01:04:34 0° 358° (N) 2,626 ? -14.1°
Reaches altitude 10° 01:06:51 10° 347° (NNW) 1,735 ? -14.6°
Maximum altitude 01:10:05 28° 287° (WNW) 972 ? -15.3°
Drops below altitude 10° 01:13:18 10° 227° (SW) 1,720 ? -16.0°
Sets 01:15:34 0° 215° (SW) 2,598 ? -16.4°
